206P/Barnard-Boattini (2008)

Japanese version
Home page
Total 6,336 html files since Dec. 4, 1995
Updated on November 30, 2008

---------------------------------------------------------------------

* Profile

Designation 206P/2008 T3
Re-discovery Date October 7, 2008
Magnitude 17.5 mag
Re-discoverer A. Boattini (Catalina Sky Survey)

* Pictures

* Orbital Elements

Epoch 2008 Oct. 21.0 TT = JDT 2454760.5
T 2008 Oct. 25.09199 TT                                 MPC
q   1.1451967            (2000.0)            P               Q
n   0.16906991     Peri.  181.42437     +0.90377283     -0.36576879
a   3.2391061      Node   204.13485     +0.39787317     +0.90938662
e   0.6464467      Incl.   32.93047     +0.15777079     -0.19806355
P   5.83
From 160 observations 1892-2008, mean residual 1".6.

* Finding Charts

* Magnitudes Graph

        m1 = 19.2 + 5 log d + 10.0 log r

---------------------------------------------------------------------

The orbital elements are published on M.P.E.C. 2008-U25.
The charts are made with StellaNavigator Ver.8 (AstroArts).
The magnitudes graphs are made with Comet for Windows.

---------------------------------------------------------------------

Copyright(C) 1995-2008 Seiichi Yoshida (comet@aerith.net). All rights reserved.